TimeCST,TemperatureF,Dew PointF,Humidity,Sea Level PressureIn,VisibilityMPH,Wind Direction,Wind SpeedMPH,Gust SpeedMPH,PrecipitationIn,Events,Conditions,WindDirDegrees,DateUTC
12:00 AM,69,60,65,30.02,10,North,2.3,,,,Haze,0,2012-11-08 06:00:00
12:00 AM,68.0,60.8,78,30.01,6.2,North,2.3,-,N/A,,Mostly Cloudy,360,2012-11-08 06:00:00
6:00 AM,67,65,92,30.00,12,SSE,2.3,,,,Haze,160,2012-11-08 12:00:00
6:00 AM,68.0,64.4,88,30.01,6.2,SSE,2.3,-,N/A,,Scattered Clouds,160,2012-11-08 12:00:00
7:00 AM,68.0,66.2,94,30.04,6.2,Calm,Calm,-,N/A,,Mostly Cloudy,0,2012-11-08 13:00:00
9:00 AM,74,67,74,30.05,6,WSW,5.8,,,Rain,Light Drizzle,240,2012-11-08 15:00:00
9:00 AM,73.4,68.0,83,30.04,6.2,WSW,5.8,-,N/A,,Drizzle,240,2012-11-08 15:00:00
10:00 AM,71.6,69.8,94,30.06,1.9,East,3.5,-,N/A,Rain,Light Rain,100,2012-11-08 16:00:00
11:00 AM,75.2,69.8,83,30.06,6.2,Calm,Calm,-,N/A,,Overcast,0,2012-11-08 17:00:00
12:00 PM,73.4,69.8,88,30.06,1.2,WSW,3.5,-,N/A,,Heavy Drizzle,240,2012-11-08 18:00:00
1:00 PM,71.6,69.8,94,30.04,0.6,SW,4.6,-,N/A,Rain,Light Rain,230,2012-11-08 19:00:00
2:00 PM,71.6,69.8,94,30.04,1.2,South,64.4,-,N/A,,Light Drizzle,180,2012-11-08 20:00:00
3:00 PM,70,70,99,30.01,1,SSW,4.6,,,Rain,Light Rain,210,2012-11-08 21:00:00
3:00 PM,71.6,69.8,94,30.01,0.6,SSW,4.6,-,N/A,Rain,Light Rain,210,2012-11-08 21:00:00
4:00 PM,71.6,69.8,94,30.01,3.1,South,5.8,-,N/A,,Overcast,180,2012-11-08 22:00:00
5:00 PM,71.6,68.0,88,30.01,6.2,Calm,Calm,-,N/A,,Overcast,0,2012-11-08 23:00:00
6:00 PM,71,69,89,30.01,1,WNW,2.3,,,Rain,Rain,300,2012-11-09 00:00:00
6:00 PM,71.6,68.0,88,30.01,0.6,WNW,2.3,-,N/A,Rain,Light Rain,300,2012-11-09 00:00:00
7:00 PM,71.6,64.4,78,30.01,5.0,SSE,4.6,-,N/A,,Mostly Cloudy,160,2012-11-09 01:00:00
8:00 PM,69.8,66.2,88,30.01,6.2,NNE,5.8,-,N/A,,Mostly Cloudy,30,2012-11-09 02:00:00
9:00 PM,70,67,88,30.07,1,ESE,11.5,,,Rain,Light Rain,120,2012-11-09 03:00:00
9:00 PM,69.8,68.0,94,30.06,1.2,ESE,11.5,-,N/A,Rain,Light Rain,120,2012-11-09 03:00:00
10:00 PM,69.8,64.4,83,30.04,2.5,South,8.1,-,N/A,,Drizzle,180,2012-11-09 04:00:00
11:00 PM,68.0,66.2,94,30.01,1.9,Variable,2.3,-,N/A,,Drizzle,0,2012-11-09 05:00:00